Flag for U.S.A. Weather past 2 weeks in Pierre, South Dakota, U.S.A.

Now
70 °F

Clear.


Feels Like: 74 °F
Forecast: 67 / 83 °F
Wind: 14 mph from Southeast

Location: Pierre Regional Airport

Current Time: Aug 31, 2015 at 4:51:25 AM

Latest Report: Aug 31, 2015 at 3:53 AM


Visibility: 10 mi

Pressure: 29.62 "Hg

Humidity: 68%

Dew point: 59 °F

Location of PierreLocation

Historic Weather in Pierre — Graph

°F

Pierre temperature yesterday

Maximum temperature yesterday: 98 °F (at 2:53 PM)
Minimum temperature yesterday: 67 °F (at 4:53 AM)
Average temperature yesterday: 81 °F

Past Weeks' High & Low Weather Summary

 TemperatureHumidityPressure
High98 °F (Aug 30, 2:53 PM)100% (Aug 18, 5:53 AM)30.19 "Hg (Aug 18, 5:53 AM)
Low45 °F (Aug 24, 6:53 AM)20% (Aug 30, 3:53 PM)29.41 "Hg (Aug 22, 5:53 AM)
Average68 °F67%29.90 "Hg
* Reported Aug 16 3:53 AM — Aug 31 3:53 AM, Pierre, Weather by CustomWeather, © 2015

Note: Actual official high and low records may vary slightly from our data, if they occured in-between our weather recording intervals... More about our weather records

Advertising

Pierre weather history for previous 24 hours

 ConditionsComfort  
Time TempWeatherWind HumidityBarometerVisibility
3:53 AM
Mon, Aug 31
70 °FClear.14 mph68%29.62 "Hg10 mi
2:53 AM71 °FClear.14 mph68%29.63 "Hg10 mi
1:53 AM72 °FClear.13 mph64%29.64 "Hg10 mi
12:53 AM71 °FClear.10 mph63%29.65 "Hg10 mi
11:53 PM
Sun, Aug 30
75 °FClear.14 mph54%29.65 "Hg10 mi
10:53 PM76 °FClear.14 mph50%29.65 "Hg9 mi
9:53 PM80 °FClear.16 mph39%29.65 "Hg8 mi
8:53 PM81 °FSunny.14 mph41%29.63 "Hg8 mi
7:53 PM85 °FSunny.15 mph37%29.61 "Hg6 mi
6:53 PM91 °FHaze.14 mph30%29.62 "Hg5 mi
5:53 PM96 °FSunny.16 mph23%29.62 "Hg5 mi
4:53 PM98 °FSunny.18 mph21%29.63 "Hg6 mi
3:53 PM98 °FSunny.25 mph20%29.64 "Hg5 mi
2:53 PM98 °FSunny.20 mph21%29.66 "Hg6 mi
1:53 PM97 °FSunny.20 mph22%29.67 "Hg5 mi
12:53 PM95 °FSunny.20 mph23%29.69 "Hg7 mi
11:53 AM92 °FSunny.23 mph25%29.72 "Hg10 mi
10:53 AM85 °FSunny.10 mph37%29.75 "Hg10 mi
9:53 AM75 °FSunny.8 mph55%29.77 "Hg10 mi
8:53 AM72 °FSunny.10 mph57%29.78 "Hg10 mi
7:53 AM67 °FClear.8 mph68%29.78 "Hg10 mi
6:53 AM67 °FClear.8 mph66%29.78 "Hg10 mi
5:53 AM67 °FClear.8 mph68%29.77 "Hg10 mi
4:53 AM67 °FClear.3 mph71%29.77 "Hg10 mi
Weather by CustomWeather, © 2015

See weather overviewHow to use our weather pages